TimePDT,TemperatureF,Dew PointF,Humidity,Sea Level PressureIn,VisibilityMPH,Wind Direction,Wind SpeedMPH,Gust SpeedMPH,PrecipitationIn,Events,Conditions,WindDirDegrees,DateUTC
12:54 AM,48.0,45.0,89,30.05,10.0,Calm,Calm,-,N/A,,Clear,0,2012-11-03 07:54:00
1:54 AM,48.0,45.0,89,30.06,10.0,Calm,Calm,-,N/A,,Clear,0,2012-11-03 08:54:00
2:54 AM,46.9,45.0,93,30.07,10.0,Calm,Calm,-,N/A,,Clear,0,2012-11-03 09:54:00
3:54 AM,45.0,43.0,93,30.07,10.0,Calm,Calm,-,N/A,,Partly Cloudy,0,2012-11-03 10:54:00
4:54 AM,51.1,48.0,89,30.07,10.0,Calm,Calm,-,N/A,,Overcast,0,2012-11-03 11:54:00
5:54 AM,52.0,48.9,89,30.09,10.0,Calm,Calm,-,N/A,,Overcast,0,2012-11-03 12:54:00
6:54 AM,53.1,50.0,89,30.08,10.0,Calm,Calm,-,N/A,,Overcast,0,2012-11-03 13:54:00
8:54 AM,55.0,51.1,86,30.12,10.0,Calm,Calm,-,N/A,,Overcast,0,2012-11-03 15:54:00
9:54 AM,57.0,52.0,83,30.13,10.0,Calm,Calm,-,N/A,,Mostly Cloudy,0,2012-11-03 16:54:00
10:54 AM,64.0,53.1,67,30.12,10.0,Calm,Calm,-,N/A,,Clear,0,2012-11-03 17:54:00
11:54 AM,68.0,53.1,59,30.12,10.0,WSW,4.6,-,N/A,,Clear,240,2012-11-03 18:54:00
12:54 PM,70.0,55.0,59,30.09,10.0,SW,6.9,-,N/A,,Clear,230,2012-11-03 19:54:00
1:54 PM,72.0,55.0,55,30.08,10.0,WSW,5.8,-,N/A,,Clear,240,2012-11-03 20:54:00
2:54 PM,72.0,54.0,53,30.07,10.0,SW,6.9,-,N/A,,Clear,220,2012-11-03 21:54:00
3:54 PM,73.0,55.0,53,30.06,10.0,SW,6.9,-,N/A,,Clear,230,2012-11-03 22:54:00
4:54 PM,71.1,54.0,55,30.07,10.0,SSW,3.5,-,N/A,,Clear,200,2012-11-03 23:54:00
5:54 PM,69.1,54.0,58,30.07,10.0,Calm,Calm,-,N/A,,Clear,0,2012-11-04 00:54:00
6:54 PM,63.0,55.0,75,30.08,10.0,SSW,4.6,-,N/A,,Clear,200,2012-11-04 01:54:00
7:54 PM,62.1,50.0,65,30.09,10.0,SW,3.5,-,N/A,,Clear,220,2012-11-04 02:54:00
8:54 PM,55.9,50.0,80,30.09,10.0,ESE,4.6,-,N/A,,Clear,120,2012-11-04 03:54:00
9:54 PM,55.9,50.0,80,30.11,10.0,SE,4.6,-,N/A,,Clear,130,2012-11-04 04:54:00
10:54 PM,55.9,50.0,80,30.12,10.0,Calm,Calm,-,N/A,,Clear,0,2012-11-04 05:54:00